Back to catalog

TEMISAT

AliveSciencePO
NORAD 22783·PAYLOAD·🇮🇹 Italy

Launched Aug 31, 1993 from Plesetsk Cosmodrome

Loading…

Next Passes (next 24 hours)

TLE

FreshSource: Space-Track

Epoch: Sep 14, 2026, 08:21 UTC

1 22783U 93055B   26257.34811997  .00000026  00000-0  99453-5 0  9991
2 22783  82.5495 227.1918 0021957 321.4921  38.4671 13.83900398668040

Track TEMISAT in real time with AllMySat

Download on the App Store